www.pogodaiklimat.ru

Погода и климат >> Архив погоды >> Индия >> Керала >> Кожикоде


ПОГОДА в Кожикоде

  • Прогноз погоды в Кожикоде
  • Монитор погоды в Кожикоде

АРХИВ ПОГОДЫ в Кожикоде

Время (UTC), дата Ветер
(напр.,м/с)
 
Видим.   Явления Облачность Т
(С)
Тd
(С)
f
(%)
Тe
(С)
Тes
(С)
Комфортность P
(гПа)
Po
(гПа)
Тmin
(С)
Tmax
(С)
R
(мм)
R24
(мм)
S
(см)
21 11.02 штиль 0 4000 м 3/1 600 м
[Sc diur, vesp Ci sp]
+27.0 +23.8 83 +37 +37 очень
душно
1012.5 1011.9
00 12.02 штиль 0 4000 м 1/1 600 м
[Sc diur, vesp]
+26.0 +24.3 90 +36 +36 очень
душно
1012.5 1011.9
03 12.02 штиль 0 10 км ясно +26.4 +23.6 85 +36 +42 очень
душно
1014.6 1014.0 +25.0 +35.8
06 12.02 штиль 0 10 км 5/3 600 м
[Sc diur, vesp Ac As Ci sp]
+32.6 +23.4 58 +43 +57 опасность
перегрева
1015.0 1014.4
09 12.02 штиль 0 10 км 4/1 600 м
[Sc diur, vesp Ci sp]
+35.4 +24.7 54 +48 +63 опасность
перегрева
1011.9 1011.3
12 12.02 штиль 0 10 км 4/1 600 м
[Sc diur, vesp Ci sp]
+33.0 +24.5 61 +46 +47 опасность
перегрева
1011.2 1010.6 +36.4
15 12.02 штиль 0 4000 м 3/0
[Ci sp]
+29.2 +24.3 75 +41 +41 опасность
перегрева
1014.1 1013.5
18 12.02 штиль 0 4000 м 4/1 600 м
[Sc diur, vesp Ci sp]
+28.0 +24.3 80 +39 +39 очень
душно
1015.4 1014.8
21 12.02 штиль 0 4000 м 4/1 600 м
[Sc diur, vesp Ci sp]
+27.0 +24.1 84 +37 +37 очень
душно
1014.4 1013.8
00 13.02 штиль 0 4000 м 3/1 600 м
[Sc diur, vesp Ci sp]
+25.8 +24.1 90 +36 +36 очень
душно
1014.5 1013.9
03 13.02 В 1 10 км 3/0
[Ci sp]
+26.0 +21.8 78 +33 +38 очень
душно
1016.3 1015.7 +25.0 +36.4
06 13.02 штиль 0 10 км 3/0
[Ci sp]
+33.4 +23.3 56 +44 +66 опасность
перегрева
1015.7 1015.1
09 13.02 штиль 0 10 км 3/0
[Ci sp]
+34.8 +24.0 54 +47 +64 опасность
перегрева
1012.9 1012.3
12 13.02 З 1 10 км 3/0
[Ci sp]
+32.6 +24.7 63 +46 +46 опасность
перегрева
1012.0 1011.4 +35.6
15 13.02 штиль 0 4000 м 3/0
[Ci sp]
+29.0 +24.7 78 +41 +41 опасность
перегрева
1014.2 1013.6
18 13.02 штиль 0 4000 м 3/0
[Ci sp]
+27.6 +24.4 83 +39 +39 очень
душно
1015.0 1014.4
21 13.02 штиль 0 4000 м 3/0
[Ci sp]
+26.4 +24.1 87 +37 +37 очень
душно
1012.6 1012.0
00 14.02 штиль 0 4000 м 3/0
[Ci sp]
+25.4 +23.3 88 +34 +34 очень
душно
1012.2 1011.6
03 14.02 штиль 0 10 км 5/1 600 м
[Sc diur, vesp Ac As Ci sp]
+26.0 +23.1 84 +35 +39 очень
душно
1014.4 1013.8 +24.6 +35.6
06 14.02 штиль 0 10 км 4/1 600 м
[Sc diur, vesp Ci sp]
+33.0 +24.5 61 +46 +65 опасность
перегрева
1014.0 1013.4
09 14.02 штиль 0 700 м ясно +34.4 +23.8 54 +46 +64 опасность
перегрева
1010.8 1010.2
12 14.02 штиль 0 10 км ясно +33.0 +24.8 62 +46 +47 опасность
перегрева
1010.1 1009.5 +35.6
15 14.02 штиль 0 4000 м ясно +29.0 +24.7 78 +41 +41 опасность
перегрева
1012.8 1012.2
18 14.02 штиль 0 4000 м {гроза, дождь} 3/1 600 м
[Sc diur, vesp Ac trans]
+12.8 +11.7 93 +12 +12 1015.8 944.2 5
21 14.02 штиль 0 4000 м 4/1 600 м
[Sc diur, vesp Ac trans Ci sp]
+27.0 +23.5 81 +37 +37 очень
душно
1013.1 1012.5
00 15.02 штиль 0 4000 м ясно +26.4 +23.6 85 +36 +36 очень
душно
1012.8 1012.2
03 15.02 штиль 0 10 км ясно +27.0 +23.5 81 +37 +43 очень
душно
1015.2 1014.6 +25.4 +35.6
06 15.02 штиль 0 10 км 3/3 600 м
[Sc diur, vesp]
+34.8 +24.3 55 +47 +64 опасность
перегрева
1015.0 1014.4
09 15.02 З 2 10 км 1/1 600 м
[Sc diur, vesp]
+35.0 +24.5 55 +48 +61 опасность
перегрева
1012.5 1011.9
12 15.02 штиль 0 10 км 3/1 600 м
[Sc diur, vesp Ci sp]
+33.0 +23.8 59 +45 +46 опасность
перегрева
1011.7 1011.1 +36.0
15 15.02 штиль 0 4000 м 1/1 600 м
[Sc diur, vesp]
+29.2 +24.9 78 +42 +42 опасность
перегрева
1013.5 1012.9
18 15.02 штиль 0 4000 м 3/3 600 м
[Sc diur, vesp]
+28.4 +25.0 82 +41 +41 опасность
перегрева
1014.8 1014.2
21 15.02 штиль 0 4000 м 1/1 600 м
[Sc diur, vesp]
+27.2 +24.3 84 +38 +38 очень
душно
1012.8 1012.2
00 16.02 штиль 0 4000 м 1/1 600 м
[Sc diur, vesp]
+26.6 +24.3 87 +37 +37 очень
душно
1012.6 1012.0
03 16.02 штиль 0 10 км 5/3 600 м
[Sc diur, vesp Ac trans]
+27.4 +24.2 83 +38 +42 очень
душно
1015.2 1014.6 +25.6 +36.0
06 16.02 штиль 0 10 км 3/1 600 м
[Sc diur, vesp Ci fib]
+34.0 +24.7 58 +47 +67 опасность
перегрева
1015.0 1014.4
09 16.02 штиль 0 10 км ясно +36.0 +25.1 54 +50 +68 опасность
перегрева
1011.7 1011.1
12 16.02 штиль 0 10 км ясно +31.8 +25.0 67 +45 +46 опасность
перегрева
1010.1 1009.5 +36.5
15 16.02 штиль 0 4000 м 3/1 600 м
[Sc diur, vesp Ci sp]
+29.0 +24.7 78 +41 +41 опасность
перегрева
1012.7 1012.1
18 16.02 штиль 0 4000 м 1/1 600 м
[Sc diur, vesp]
+28.6 +23.4 73 +39 +39 очень
душно
1015.2 1014.6
21 16.02 штиль 0 10 км ясно +27.4 +22.4 74 +36 +36 очень
душно
1013.3 1012.7
00 17.02 штиль 0 4000 м 3/3 600 м
[Sc diur, vesp]
+26.6 +24.0 86 +37 +37 очень
душно
1012.6 1012.0
03 17.02 штиль 0 10 км ясно +27.4 +24.4 84 +39 +45 очень
душно
1014.8 1014.2 +26.0 +36.5
06 17.02 штиль 0 10 км 3/0
[Ci sp]
+33.8 +23.8 56 +45 +68 опасность
перегрева
1014.8 1014.2
09 17.02 штиль 0 10 км 3/0
[Ci sp]
+35.4 +23.7 51 +47 +64 опасность
перегрева
1011.0 1010.4
12 17.02 З 1 10 км 3/0
[Ci sp]
+32.4 +23.8 61 +44 +45 опасность
перегрева
1009.9 1009.3 +36.6
15 17.02 штиль 0 4000 м 1/0
[Ci sp]
+29.0 +22.9 70 +39 +39 очень
душно
1011.8 1011.2
18 17.02 штиль 0 4000 м 1/0
[Ci sp]
+27.4 +23.6 80 +37 +37 очень
душно
1011.9 1011.3
21 17.02 штиль 0 10 км 1/0
[Ci sp]
+27.4 +22.0 72 +35 +35 очень
душно
1010.1 1009.5
00 18.02 штиль 0 4000 м 1/0
[Ci sp]
+24.4 +21.7 85 +31 +31 очень
душно
1010.0 1009.4
03 18.02 штиль 0 10 км ясно +25.8 +21.0 75 +32 +39 очень
душно
1012.9 1012.3 +23.8 +36.6
06 18.02 штиль 0 10 км ясно +33.4 +21.6 50 +41 +66 опасность
перегрева
1012.9 1012.3
09 18.02 З 1 10 км 1/0
[Ci sp]
+34.4 +22.2 49 +43 +59 опасность
перегрева
1009.7 1009.1
12 18.02 З 1 10 км 1/0
[Ci sp]
+32.6 +23.4 58 +43 +44 опасность
перегрева
1008.5 1007.9 +36.2
15 18.02 штиль 0 4000 м ясно +28.4 +23.5 75 +39 +39 очень
душно
1010.4 1009.8
18 18.02 штиль 0 4000 м 1/0
[Ci sp]
+27.2 +22.5 76 +36 +36 очень
душно
1011.0 1010.4

 

Местоположение метеостанции Кожикоде (Керала, Индия): широта 11.25 долгота 75.78 высота над уровнем моря 5 м.

В архиве по умолчанию представлена погода в Кожикоде за последнюю неделю. Архивные данные за месяц целиком и за предыдущие месяцы, начиная с января 2011 года, Вы можете получить, выбрав интересующий диапазон дат из раскрывающегося списка и нажав кнопку "Ввод!".


*Определитесь, кто Вы:
робот инопланетянин человек

Внимание! Время в таблицах - всемирное. Для получения местного времени необходимо прибавить поправку, которая равна 5.5 ч.

Смотрите также архив погоды в соседних городах и на ближайших метеорологических станциях:

Погода в Карипере (Керала, Индия) (23 км)
Погода в Каннаноре (Керала, Индия) (81 км)
Погода в Триссуре (Керала, Индия) (94 км)
Погода в Удагамандаламе (Тамилнад, Индия) (105 км)
Погода в Палаккаде (Керала, Индия) (109 км)
Погода в Кунуре (Тамилнад, Индия) (112 км)
Погода в Мадикери (Карнатака, Индия) (130 км)
Погода в Коти (Керала, Индия) (140 км)
Погода в Коимбатуре (Тамилнад, Индия) (141 км)
Погода в Чамраджнагаре (Карнатака, Индия) (146 км)

Пояснения к столбцам:

Ветер - указаны скорость ветра в м/с - средняя за 10 мин, порывы в срок и между сроками (в фигурных скобках) и направление, откуда дует ветер: С - северный, СВ - северо-восточный, В - восточный, ЮВ - юго-восточный, Ю - южный, ЮЗ - юго-западный, З - западный, СЗ - северо-западный.
Видимость - горизонтальная дальность видимости в метрах или километрах. При видимости от 1 до 10 км при отсутствии осадков обычно наблюдается дымка, при ухудшении видимости до 1 км и менее - туман. В сухую погоду видимость может ухудшаться дымом, пылью или мглою.
Явления - указаны атмосферные явления, наблюдавшиеся в срок или в последний час перед сроком; фигурными скобками обозначены явления, наблюдавшиеся между сроками (за 1-3 часа до срока); квадратными скобками обозначены град или гололедные отложения с указанием их диаметра в мм.
Облачность - указаны через наклонную черту общая и нижняя облачность в баллах и высота нижней границы облаков в метрах; квадратными скобками обозначены формы облаков: Ci - перистые, Cs - перисто-слоистые, Cc - перисто-кучевые, Ac - высококучевые, As - высокослоистые, Sc - слоисто-кучевые, Ns - слоисто-дождевые, Cu - кучевые, Cb - кучево-дождевые. Подробнее классификацию облаков см. в Атласе облаков (PDF).
T - Температура воздуха - температура, измеренная на высоте 2 м над землей.
Td - Температура точки росы - температура, при понижении до которой содержащийся в воздухе водяной пар достигнет насыщения.
f - Относительная влажность воздуха - влажноcть воздуха, измеренная на высоте 2 м над землей.
Te - Эффективная температура - температура, которую ощущает одетый по сезону человек в тени. Характеристика душности погоды. При расчете учитывается влияние влажности воздуха и скорости ветра на теплоощущения человека.
Tes - Эффективная температура на солнце - температура, которую ощущает человек, с поправкой на солнечный нагрев. Характеристика знойности погоды. Зависит от высоты солнца над горизонтом, облачности и скорости ветра. Ночью, в пасмурную погоду, а также при ветре 12 м/с и более поправка равна нулю.
P - Атмосферное давление - приведенное к уровню моря атмосферное давление.
Po - Атмосферное давление - измеренное на уровне метеостанции атмосферное давление.
Tmin - Минимальная температура - минимум температуры воздуха на высоте 2 м над землей.
Tmax - Максимальная температура - максимум температуры воздуха на высоте 2 м над землей.
R - Количество осадков - Количество выпавших осадков за период времени, мм. При наведении курсора мыши на число - период времени, за который выпало указанное количество осадков.
R24 - Количество осадков - Количество выпавших осадков за 24 часа, мм.
S - Снежный покров - Высота снежного покрова, см. При наведении курсора мыши на число - состояние снежного покрова и степень покрытия местности в баллах.